This demonstration page uses our WeatherBlox Daily Observations layout. Learn more.

Left ArrowRight Arrow

31.84235, -102.49876

Hourly Observations for March 19, 2017

Temp ( °F °C ) Dew Point ( °F °C ) Humidity (%) Winds ( mph kmh ) Pressure ( in mb ) Visibility ( mi km ) Precip ( " mm )
12:53 am 00:53 Clear 66 18.9 54 12.2 65 65 S 12 19 30.10 1019 10 16 0.00 0.00
1:53 am 01:53 Clear 64 17.8 54 12.2 70 70 S 10 17 30.09 1019 10 16 0.00 0.00
2:53 am 02:53 Clear 64 17.8 57 13.9 78 78 S 14 22 30.07 1018 10 16 0.00 0.00
3:53 am 03:53 Clear 63 17.2 57 13.9 81 81 S 10 17 30.06 1018 10 16 0.00 0.00
4:53 am 04:53 Clear 62 16.7 57 13.9 84 84 S 8 13 30.05 1018 9 14 0.00 0.00
5:53 am 05:53 Clear 61 16.1 57 13.9 87 87 S 9 15 30.05 1018 8 13 0.00 0.00
6:53 am 06:53 Clear 61 16.1 57 13.9 87 87 S 9 15 30.06 1018 8 13 0.00 0.00
7:53 am 07:53 Clear 59 15 55 12.8 87 87 S 9 15 30.08 1019 7 11 0.00 0.00
8:53 am 08:53 Sunny 61 16.1 56 13.3 84 84 S 9 15 30.10 1019 8 13 0.00 0.00
9:53 am 09:53 Sunny 65 18.3 57 13.9 76 76 S 7 11 30.12 1020 10 16 0.00 0.00
10:53 am 10:53 Sunny 69 20.6 56 13.3 63 63 SSW 15 24 30.12 1020 10 16 0.00 0.00
11:53 am 11:53 Sunny 75 23.9 56 13.3 52 52 SW 12 19 30.11 1020 10 16 0.00 0.00
12:53 pm 12:53 Sunny 79 26.1 53 11.7 41 41 SSW 9 15 30.09 1019 10 16 0.00 0.00
1:53 pm 13:53 Sunny 83 28.3 50 10 32 32 SSW 12 19 30.06 1018 10 16 0.00 0.00
2:53 pm 14:53 Sunny 85 29.4 47 8.3 27 27 S 9 15 30.03 1017 10 16 0.00 0.00
3:53 pm 15:53 Sunny 87 30.6 44 6.7 22 22 S 9 15 30.00 1016 10 16 0.00 0.00
4:53 pm 16:53 Sunny 88 31.1 43 6.1 21 21 SSW 7 11 29.98 1015 10 16 0.00 0.00
5:53 pm 17:53 Sunny 88 31.1 40 4.4 18 18 S 10 17 29.97 1015 10 16 0.00 0.00
6:53 pm 18:53 Sunny 88 31.1 40 4.4 18 18 S 13 20 29.96 1015 10 16 0.00 0.00
7:53 pm 19:53 Sunny 82 27.8 44 6.7 26 26 SSE 17 28 29.99 1016 10 16 0.00 0.00
8:53 pm 20:53 Clear 80 26.7 42 5.6 26 26 S 17 28 30.01 1016 10 16 0.00 0.00
9:53 pm 21:53 Clear 77 25 49 9.4 37 37 S 14 22 30.03 1017 10 16 0.00 0.00
10:53 pm 22:53 Clear 74 23.3 52 11.1 46 46 S 20 31 30.02 1017 10 16 0.00 0.00
11:53 pm 23:53 Clear 72 22.2 52 11.1 50 50 S 18 30 30.02 1017 10 16 0.00 0.00

Powered by AerisWeather